Overview Statistics Trail Chart Weather Telemetry Raw packets
 

This is the latest recevied weather packets stored in our database for station/object OK1FET-4. If no packets are shown the sender has not sent any weather packets the latest 10 day(s).

<< 3 4 5 6 7 8 9 >>
Time Temp. Humidity Pressure Rain* Wind** Luminosity Snow
1788629938 20° C 46% 1021.3 hPa - - - -
1788629637 20° C 45% 1021 hPa - - - -
1788629336 20° C 45% 1021.2 hPa - - - -
1788629036 20.56° C 44% 1021.1 hPa - - - -
1788628735 20.56° C 44% 1020.9 hPa - - - -
1788628434 21.11° C 43% 1021 hPa - - - -
1788628133 21.11° C 43% 1020.8 hPa - - - -
1788627832 21.67° C 43% 1020.8 hPa - - - -
1788627531 21.67° C 42% 1020.5 hPa - - - -
1788627230 21.67° C 43% 1020.6 hPa - - - -
1788626929 21.67° C 43% 1020.5 hPa - - - -
1788626628 21.67° C 42% 1020.5 hPa - - - -
1788626327 21.67° C 43% 1020.5 hPa - - - -
1788626026 21.67° C 43% 1020.3 hPa - - - -
1788625725 21.67° C 43% 1020.2 hPa - - - -
1788625424 21.67° C 43% 1020.2 hPa - - - -
1788625123 21.67° C 43% 1020.1 hPa - - - -
1788624822 22.22° C 42% 1020 hPa - - - -
1788624521 23.33° C 41% 1019.8 hPa - - - -
1788624224 23.33° C 41% 1019.9 hPa - - - -
1788623918 23.33° C 40% 1019.8 hPa - - - -
1788623618 23.33° C 41% 1019.8 hPa - - - -
1788623316 23.33° C 40% 1019.7 hPa - - - -
1788623015 23.89° C 40% 1019.5 hPa - - - -
1788622714 23.89° C 40% 1019.7 hPa - - - -

* Rain since midnight (hover to see other rain measurements)
** Current wind speed in m/s (hover to see current wind gust speed)